SCP
0 0 0 0 0 0 0 0 0 0 0 0 0 0 0 0 0 0 0 0 0 0 0 0 1 1 1 1 1 1 1 1 1 1 1 1 1 0 0 0 0 0 0 0
0 0 0 0 0 0 0 0 0 0 0 0 0 0 0 0 0 0 0 0 0 0 0 1 1 1 2 2 1 2 1 1 1 1 1 1 0 0 0 0 0 0 0 0
0 0 0 0 0 0 0 0 0 0 0 0 0 0 0 0 0 0 0 0 0 0 1 1 2 2 2 2 2 2 2 1 1 1 1 1 0 0 0 0 0 0 0 0
0 0 0 0 0 0 0 0 0 0 0 0 0 0 0 0 0 0 0 0 0 0 1 2 3 3 3 2 2 2 2 1 1 1 1 1 0 0 0 0 0 0 0 0
0 0 0 0 0 0 0 0 0 0 0 0 0 0 0 0 0 0 0 0 0 0 1 2 3 3 3 3 2 2 1 1 1 1 1 1 0 0 0 0 0 0 0 0
0 0 0 0 0 0 0 0 0 0 0 0 0 0 0 0 0 0 0 0 0 0 1 2 3 3 3 2 2 1 1 1 1 1 1 0 0 0 0 0 0 0 0 0
0 0 0 0 0 0 0 0 0 0 0 0 0 0 0 0 0 0 0 0 0 0 1 1 2 2 2 2 2 1 1 0 0 0 0 0 0 0 0 0 0 0 0 0
0 0 0 0 0 0 0 0 0 0 0 0 0 0 0 0 0 0 0 0 0 0 1 1 1 1 1 1 1 1 0 0 0 0 0 0 0 0 0 0 0 0 0 0
0 0 0 0 0 0 0 0 0 0 0 0 0 0 0 0 0 0 0 0 0 0 0 0 1 1 1 1 0 0 0 0 0 0 0 0 0 0 0 0 0 0 0 0
0 0 0 0 0 0 0 0 0 0 0 0 0 0 0 0 0 0 0 0 0 0 0 0 0 0 0 0 0 0 0 0 0 0 0 0 0 0 0 0 0 0 0 0
0 0 0 0 0 0 0 0 0 0 0 0 0 0 0 0 0 0 0 0 0 0 0 0 0 0 0 0 0 0 0 0 0 0 0 0 0 0 0 0 0 0 0 0
0 0 0 0 0 0 0 0 0 0 0 0 0 0 0 0 0 0 0 0 0 0 0 0 0 0 0 0 0 0 0 0 0 0 0 0 0 0 0 0 0 0 0 0
0 0 0 0 0 0 0 0 0 0 0 0 0 0 0 0 0 0 0 0 0 0 0 0 0 0 0 0 0 0 0 0 0 0 0 0 0 0 0 0 0 0 0 0
0 0 -0 -0 -0 0 0 0 0 0 0 0 0 0 0 0 0 0 0 0 0 0 0 0 0 0 0 0 0 0 0 0 0 0 0 0 0 0 0 0 0 0 0 0
0 -0 -0 -0 -0 -0 0 0 0 0 0 0 0 0 0 0 0 0 0 0 0 0 0 0 0 0 0 0 0 0 0 0 0 0 0 0 0 0 0 0 0 0 0 0
0 -0 0 0 0 0 0 0 0 0 0 0 0 0 0 0 0 0 0 0 0 0 0 0 0 0 0 0 0 0 0 0 0 0 0 0 0 0 0 0 0 0 0 0
0 0 0 0 0 0 0 0 0 0 0 0 0 0 0 0 0 0 0 0 0 0 0 0 0 0 0 0 0 0 0 0 0 0 0 0 0 0 0 0 0 0 0 0
0 -0 -0 0 0 0 0 0 0 0 0 0 0 0 0 0 0 0 0 0 0 0 0 0 0 0 0 0 0 0 0 0 0 0 0 0 0 0 0 0 0 0 0 0
0 0 0 0 0 0 0 0 0 0 0 0 0 0 0 0 0 0 0 0 0 0 0 -0 0 0 0 0 0 0 0 0 0 0 0 0 0 0 0 0 0 0 0 0
0 0 0 0 0 0 0 0 0 0 0 0 0 0 0 0 0 0 0 0 0 0 0 -0 0 0 0 0 0 0 0 0 0 0 0 0 0 0 0 0 0 0 0 0
0 0 0 0 0 0 0 0 0 0 0 0 0 0 0 0 0 0 0 0 0 0 0 0 0 0 0 0 0 0 0 0 0 0 0 0 0 0 0 0 0 0 0 0
0 0 0 0 0 0 0 0 0 0 0 0 0 0 0 0 0 0 0 0 0 0 0 0 0 0 0 0 -0 -0 -0 0 0 0 0 0 0 0 0 0 0 0 0 0
0 0 0 0 0 0 0 0 0 -0 -0 0 0 0 0 0 0 0 0 0 0 0 0 0 0 0 0 0 0 0 0 0 0 0 0 0 0 0 0 0 0 0 0 0
0 0 0 0 0 0 0 0 0 0 0 0 0 0 0 0 0 0 0 0 0 0 0 0 0 0 0 0 0 0 0 0 0 0 0 0 0 0 0 0 0 0 0 0
0 0 0 0 0 0 0 0 0 0 0 0 0 0 0 0 0 0 0 0 0 0 0 0 0 0 0 0 0 0 0 0 0 0 0 0 0 0 0 0 0 0 0 0
0 0 0 0 0 0 0 0 0 0 0 0 0 0 0 0 0 0 0 0 0 0 0 0 0 0 0 0 0 0 0 0 0 0 0 0 0 0 0 0 0 0 0 0
Wind_Speed
1 3 1 3 4 5 4 3 4 4 3 2 4 7 10 7 5 4 3 5 7 10 6 11 18 18 15 13 13 12 12 12 9 6 5 4 4 4 3 4 5 5 4 3
3 2 5 5 4 3 2 2 3 2 1 3 4 8 10 9 7 4 3 6 10 8 4 7 13 16 15 14 13 12 12 10 9 7 5 3 3 3 3 3 3 4 4 4
2 5 5 4 3 3 3 4 4 4 2 3 4 8 8 7 5 4 3 3 9 8 9 10 12 12 13 13 13 11 9 9 8 7 5 4 4 3 2 2 2 3 5 5
3 4 2 3 4 5 5 5 4 2 1 3 2 6 9 6 5 5 5 4 5 3 5 5 6 9 11 10 9 10 9 8 7 8 7 6 4 4 4 3 3 3 4 4
4 5 4 3 4 2 3 2 4 3 2 2 2 3 10 6 5 5 6 6 4 2 5 5 5 6 6 6 7 9 8 6 6 6 7 7 4 3 2 2 4 4 3 3
4 4 2 3 4 4 5 5 4 4 3 3 4 5 6 9 10 9 7 5 5 5 6 7 6 8 7 4 6 7 6 4 5 6 6 7 7 5 4 4 4 3 1 2
8 8 6 7 9 6 4 4 3 4 2 5 3 2 4 13 16 14 14 12 6 1 6 10 11 9 7 5 5 4 4 4 4 6 5 5 6 6 6 5 5 4 3 2
6 7 7 8 5 5 4 5 6 5 4 4 3 0 3 12 16 16 16 15 13 12 8 6 9 10 9 6 2 5 5 5 5 5 4 4 5 4 3 4 4 4 4 4
5 6 8 7 7 5 6 1 3 5 3 3 3 2 4 16 21 20 18 16 13 12 12 10 7 6 11 12 11 9 7 5 4 4 3 3 4 4 3 3 4 3 3 3
3 6 6 6 9 8 3 2 3 2 4 4 1 4 7 15 17 19 17 13 10 8 9 10 8 5 3 4 5 6 6 5 4 3 3 2 4 5 4 3 5 5 4 4
4 2 7 6 6 7 8 6 4 1 1 3 2 3 5 8 11 15 16 12 9 5 4 6 2 7 7 4 4 6 6 5 5 5 3 3 4 4 4 3 4 5 4 5
5 4 4 3 3 2 3 4 3 1 1 0 3 4 7 8 11 14 15 13 11 7 3 4 7 10 9 6 4 5 6 6 5 4 3 3 2 2 3 4 4 4 4 5
4 5 5 8 8 5 5 7 6 1 0 1 2 4 9 12 13 14 15 15 12 9 7 6 7 9 9 7 6 6 6 5 4 4 4 2 2 3 4 5 4 4 5 5
5 4 2 2 4 4 7 11 10 3 2 4 6 6 12 18 19 20 18 17 14 7 5 6 8 10 10 9 7 6 5 3 4 4 3 2 3 4 5 5 5 4 5 6
4 2 2 4 8 12 14 16 16 14 10 7 5 5 11 16 17 17 16 14 13 11 8 3 0 2 4 5 4 3 2 2 3 4 4 5 5 5 5 6 5 5 5 6
5 2 2 3 6 12 16 19 17 12 10 8 8 6 13 17 16 18 17 14 14 14 14 14 14 13 12 10 8 7 6 4 3 1 3 4 4 4 4 6 6 6 5 5
5 3 3 4 3 2 12 13 12 9 9 8 9 10 17 20 21 17 16 15 13 12 12 14 13 12 12 11 11 12 9 8 8 7 5 4 2 1 2 2 2 3 3 3
2 3 3 2 5 7 2 4 6 6 6 9 10 12 14 16 17 8 11 14 11 9 9 9 8 8 7 7 7 7 7 7 8 7 8 8 7 6 5 4 4 4 2 1
5 3 4 3 4 2 3 5 6 4 3 8 11 14 16 18 11 3 13 17 10 5 4 5 5 6 7 7 6 7 7 6 6 6 6 6 6 6 6 6 5 4 3 3
7 7 5 4 3 1 3 6 3 2 1 6 8 11 14 15 10 9 17 18 11 5 4 5 6 6 7 6 6 8 7 7 6 5 5 5 5 5 5 5 4 4 3 3
6 7 6 4 2 1 3 6 3 2 4 9 7 8 9 6 5 13 17 15 9 3 4 5 6 4 3 4 6 7 6 5 4 4 4 4 4 4 4 4 4 4 4 5
2 2 3 3 3 4 4 3 2 3 4 6 7 7 8 9 11 13 14 13 9 3 2 3 4 3 2 2 4 4 4 3 3 4 4 3 4 4 4 5 5 5 5 5
3 4 4 3 4 4 1 2 3 4 4 5 5 8 8 9 10 12 12 11 7 2 1 1 2 3 3 2 1 2 3 2 3 4 3 2 3 4 4 5 5 5 5 4
2 3 3 1 1 1 3 4 4 5 6 8 9 9 8 7 10 11 10 9 7 3 1 1 0 2 4 3 2 2 1 1 3 3 1 1 1 2 3 3 3 3 4 4
6 3 3 2 2 0 3 4 5 6 8 9 8 7 7 7 8 7 7 8 7 5 3 1 1 2 3 2 2 2 1 3 3 2 1 1 1 1 2 2 3 3 2 3
6 7 6 6 6 5 4 5 5 4 5 6 6 7 7 5 7 8 8 6 6 6 4 3 4 4 3 1 3 4 2 4 4 3 1 1 2 2 2 1 1 2 1 3
Wind_Direction
208 77 256 224 176 174 180 220 255 254 231 260 267 276 284 293 296 302 351 3 329 281 245 178 172 174 171 171 172 171 166 171 165 156 155 155 169 172 183 191 189 188 189 177
47 281 229 179 169 169 192 260 272 264 266 288 282 277 274 260 246 254 321 342 325 288 236 183 166 168 170 172 174 172 169 166 164 162 155 152 154 172 185 177 182 187 179 165
217 247 208 187 198 209 227 219 231 239 321 1 326 295 279 276 254 255 262 297 299 267 198 180 164 164 168 172 172 165 155 150 149 141 123 103 92 84 102 162 193 201 190 184
328 292 219 229 242 210 242 225 178 141 64 306 323 292 287 288 296 264 242 237 266 253 169 154 145 153 162 167 151 138 135 138 141 138 140 146 148 157 182 180 189 206 199 194
304 302 299 292 284 205 208 121 112 113 128 316 257 245 288 314 301 271 242 229 228 179 138 135 129 122 107 121 127 123 121 128 137 140 144 139 134 147 151 151 178 198 200 200
289 320 28 11 3 72 98 73 61 54 74 296 236 201 306 350 329 324 315 287 228 196 165 132 112 105 99 110 112 110 121 136 135 132 134 139 145 153 152 158 175 193 195 204
342 343 4 25 12 6 48 79 15 342 331 254 252 189 30 355 357 355 346 339 331 169 148 128 116 105 98 91 87 105 146 154 148 145 147 152 157 164 175 180 182 180 185 209
12 320 351 7 3 305 286 161 171 216 237 286 319 140 75 5 8 11 14 11 21 29 36 81 119 124 117 111 130 210 190 176 164 161 168 161 159 166 186 194 185 190 194 205
355 295 327 356 15 9 340 316 186 171 211 246 305 7 9 6 6 1 6 14 23 30 36 36 54 121 149 166 192 206 188 183 181 182 188 204 190 177 183 196 189 184 184 178
10 296 316 5 21 17 357 332 54 129 194 200 330 36 1 355 350 343 347 353 358 24 53 44 20 346 278 189 170 167 178 188 191 191 195 189 170 161 161 162 164 168 175 166
57 16 334 16 23 341 356 14 19 104 204 152 146 62 8 339 337 330 329 334 334 342 66 94 56 287 271 252 189 175 183 183 181 176 163 142 138 150 161 170 174 174 179 177
4 81 356 330 311 8 44 8 346 40 312 125 126 97 3 347 339 330 328 332 331 316 276 196 194 238 258 254 228 203 198 193 188 168 140 147 157 164 188 203 198 188 196 200
7 61 12 343 336 359 18 345 317 228 228 26 86 66 3 359 350 339 333 331 325 297 259 238 239 250 259 250 226 212 214 202 180 156 152 168 201 211 222 229 222 203 201 210
61 69 93 316 313 6 11 359 13 53 70 72 54 16 358 355 348 341 336 329 320 303 248 230 245 259 268 265 239 211 209 185 162 160 159 195 232 236 239 240 241 234 216 212
62 17 355 68 77 71 42 22 28 42 45 55 33 9 356 346 339 335 337 342 355 10 25 43 223 283 303 298 264 204 159 128 161 169 180 207 230 245 246 242 236 241 235 229
22 346 8 76 101 80 45 22 16 22 27 28 19 5 344 339 344 351 359 11 23 31 36 41 46 48 42 37 39 52 52 47 69 159 212 222 227 243 252 249 237 231 235 236
337 8 52 6 350 65 31 2 358 3 22 20 14 343 336 343 343 346 3 13 25 33 38 43 46 49 47 44 49 52 44 43 51 47 32 11 346 342 323 290 269 260 256 249
351 31 84 37 38 59 314 282 325 346 33 21 353 340 341 338 321 316 10 6 4 22 37 42 47 54 58 61 60 60 51 51 53 49 45 42 46 45 37 40 32 6 350 300
43 68 76 75 73 70 339 343 340 338 2 9 346 340 341 339 332 341 358 354 340 356 37 50 56 64 64 61 62 64 55 54 55 50 47 44 49 47 39 35 25 13 20 21
26 51 66 68 79 57 308 313 326 211 328 347 336 333 339 346 5 335 332 334 330 357 39 47 45 47 48 44 50 50 39 39 36 35 44 50 54 53 41 28 18 8 13 17
7 18 38 48 63 282 277 310 354 34 305 311 309 312 324 329 282 293 311 323 327 350 46 54 51 45 39 45 55 46 30 17 9 30 48 50 47 48 36 27 23 22 25 31
93 49 24 44 27 288 294 13 48 256 269 285 294 296 302 304 302 311 322 328 327 327 44 54 47 23 8 38 58 42 11 347 27 52 59 49 37 34 36 39 32 30 34 37
166 177 181 184 217 245 219 210 239 244 274 281 285 289 295 307 312 319 324 325 320 268 230 56 28 341 342 358 28 17 334 350 71 70 65 37 39 42 44 50 44 35 29 30
256 173 135 142 276 249 202 239 262 270 272 280 284 287 291 294 301 311 319 329 332 303 274 34 25 322 334 331 287 282 330 84 101 91 105 6 22 26 32 40 43 46 29 21
217 169 134 166 226 179 249 269 274 280 287 291 295 291 287 288 297 306 321 331 337 319 294 287 213 270 316 331 265 269 60 101 118 126 186 269 302 313 342 33 45 41 37 16
196 170 168 199 202 184 249 277 284 289 302 308 318 323 324 320 321 326 326 329 337 335 317 293 268 265 279 285 240 245 204 142 146 167 213 264 285 299 305 308 31 53 30 358